This is the latest recevied weather packets stored in our database for station/object IK1QAD-3. If no packets are shown the sender has not sent any weather packets the latest 10 day(s).
| Time | Temp. | Humidity | Pressure | Rain* | Wind** | Luminosity | Snow |
|---|---|---|---|---|---|---|---|
| 1777642116 | 22.78° C | 38% | 1023.5 hPa | 0 mm | - | - | - |
| 1777641815 | 22.78° C | 38% | 1023.5 hPa | 0 mm | - | - | - |
| 1777641511 | 22.78° C | 38% | 1023.6 hPa | 0 mm | - | - | - |
| 1777641222 | 23.33° C | 39% | 1023.7 hPa | 0 mm | - | - | - |
| 1777640918 | 22.78° C | 39% | 1023.7 hPa | 0 mm | - | - | - |
| 1777640609 | 22.78° C | 40% | 1023.7 hPa | 0 mm | - | - | - |
| 1777640322 | 22.78° C | 39% | 1023.7 hPa | 0 mm | - | - | - |
| 1777640012 | 22.22° C | 40% | 1023.9 hPa | 0 mm | - | - | - |
| 1777639708 | 22.22° C | 41% | 1023.9 hPa | 0 mm | - | - | - |
| 1777639425 | 22.22° C | 43% | 1024 hPa | 0 mm | - | - | - |
| 1777639117 | 21.67° C | 43% | 1024 hPa | 0 mm | - | - | - |
| 1777638812 | 21.67° C | 43% | 1024.1 hPa | 0 mm | - | - | - |
| 1777638521 | 21.11° C | 44% | 1024.3 hPa | 0 mm | - | - | - |
| 1777638218 | 21.11° C | 44% | 1024.5 hPa | 0 mm | - | - | - |
| 1777637918 | 20.56° C | 43% | 1024.5 hPa | 0 mm | - | - | - |
| 1777637611 | 20.56° C | 44% | 1024.5 hPa | 0 mm | - | - | - |
| 1777637313 | 20.56° C | 43% | 1024.7 hPa | 0 mm | - | - | - |
| 1777637009 | 21.11° C | 44% | 1024.7 hPa | 0 mm | - | - | - |
| 1777636725 | 21.11° C | 47% | 1024.8 hPa | 0 mm | - | - | - |
| 1777636419 | 20.56° C | 46% | 1024.7 hPa | 0 mm | - | - | - |
| 1777636113 | 20.56° C | 45% | 1024.9 hPa | 0 mm | - | - | - |
| 1777635813 | 20.56° C | 46% | 1025 hPa | 0 mm | - | - | - |
| 1777635507 | 20.56° C | 45% | 1024.9 hPa | 0 mm | - | - | - |
| 1777635224 | 20.56° C | 45% | 1025 hPa | 0 mm | - | - | - |
| 1777634922 | 20° C | 45% | 1024.9 hPa | 0 mm | - | - | - |
* Rain latest hour (hover to see other rain measurements)
** Current wind speed in m/s (hover to see current wind gust speed)